METEOR 2-17 DEB, 35366

Orbit data source: Space-Track

METEOR 2-17 DEB, 35366 is space debris in LEO originally from a launch on Sat, 30 Jan 1988 UTC launched from the Plesetsk Missile And Space Complex (PKMTR). Debris objects in space refer to the collection of defunct objects orbiting the Earth. Examples of debris include non-operational satellites, rocket bodies, and fragments generated from explosions, collisions, or faulty payload assembly.

Loading next visibility...
Identifier
35366, 1988-005AA
Orbit
LEO
Country
Flag of CISCIS
Related business
Manufacturer
Unknown
Mission
Spacecraft
Bus & Motor
Unknown
Mass
Unknown
Launch date (UTC)
1988-01-30 (38 years ago)
Launch vehicle
Unknown
Launch site
Plesetsk Missile And Space Complex (PKMTR)
Object type
Payload
Rocket body
Debris
Shape & HBR
Unknown shape, 0.1 m
Radar Cross Section
Small (<0.1 m²)

Expand to show TLE details & history
Last TLE update: 2 days ago

TLE from 2 days ago
0 METEOR 2-17 DEB
1 35366U 88005AA  25350.50316153  .00002049  00000-0  13125-2 0  9992
2 35366  82.5285  51.4445 0014049  35.5375  28.2453 14.02868381634147
Epoch: 2025-12-16T12:04Z
TLE epoch observation values (Epoch: 2025-12-16T12:04:33.156Z)
Latitude
62.97551°
Longitude
159.73889°
Altitude
885.711 km
Speed
7.42 km/s
True Right ascension
04h 25m 03s
True Declination
62° 50' 19"
Sunlit
Object was in full shadow at epoch
Visualization orbit readout
Latitude
Unknown
Longitude
Unknown
Altitude
Unknown
Speed
Unknown
Apparent Right ascension
Unknown
Apparent Declination
Unknown
Sunlit
N/A
Visualization observer readout
Local Sidereal Time
19:25:31
Azimuth
Unknown
Elevation
Unknown
Doppler factor
Unknown
Orbital elements
Apogee altitude
891.205 km
Perigee altitude
870.808 km
Semi-major axis
7,259.143 km
Eccentricity
0.0014
Inclination
82.5285°
RAAN
51.4445°
Arg. of periapsis
35.5375°
True anomaly
28.32161°
Mean anomaly
28.2453°
Eccentric anomaly
28.28344°
Mean motion
3.50926 °/min
Orbital period
102.59 mins
BSTAR
0.0013125
Loading maneuver chart data...
Computing Atmospheric mass density...
Loading historical data...
Loading historical data...
Loading historical data...
Loading historical data...
Loading historical data...
Loading historical data...
Loading historical data...

Documentation

Showing up to 5 results
|